Cambui, Brazil
Current Conditions -  °F | °C
As of 2:00 AM on Thursday 23 Oct 2014 (Local Time) from SBSJ Reporting Station
Overcast Overcast  
Wind Chill: 66°   Ceiling: 2000
Heat Index: 66°   Visibility: 6mi
Dew Point: 55°   Wind: 12mph
Humidity: 68%   Direction: 120°ESE
Pressure: 30.18"   Gusts: NA
Location:  22.61°S, 46.06°W
Report Text: SBSJ 230400Z 12010KT 9999 OVC020 19/13 Q1022
Loading
Personal Weather Stations






























Interactive Weather Map
Tropical Storm Tracking
New forecast layout! Learn more

10-Day Weather Forecast

Advertisements
Track Severe Weather on mobile